This is the latest recevied weather packets stored in our database for station/object OK2ILA-1. If no packets are shown the sender has not sent any weather packets the latest 10 day(s).
| Time | Temp. | Humidity | Pressure | Rain* | Wind** | Luminosity | Snow |
|---|---|---|---|---|---|---|---|
| 1787976531 | 16.67° C | 100% | 1016.7 hPa | 4.57 mm | - | - | - |
| 1787975810 | 16.67° C | 100% | 1016.8 hPa | 5.33 mm | - | - | - |
| 1787975090 | 17.22° C | 100% | 1017 hPa | 5.33 mm | - | - | - |
| 1787974369 | 17.78° C | 100% | 1016.4 hPa | 4.06 mm | - | - | - |
| 1787973648 | 17.78° C | 100% | 1016 hPa | 3.05 mm | - | - | - |
| 1787972928 | 17.78° C | 100% | 1016.1 hPa | 1.27 mm | - | - | - |
| 1787972207 | 18.33° C | 100% | 1015.9 hPa | 0.51 mm | - | - | - |
| 1787971486 | 18.33° C | 100% | 1015.8 hPa | 0.25 mm | - | - | - |
| 1787970766 | 18.33° C | 100% | 1015.6 hPa | 1.27 mm | - | - | - |
| 1787970045 | 18.33° C | 100% | 1015.5 hPa | 2.29 mm | - | - | - |
| 1787969324 | 18.33° C | 100% | 1015.6 hPa | 3.05 mm | - | - | - |
| 1787968604 | 18.33° C | 100% | 1015.7 hPa | 3.56 mm | - | - | - |
| 1787967883 | 17.78° C | 100% | 1015.8 hPa | 4.32 mm | - | - | - |
| 1787967162 | 17.78° C | 100% | 1015.7 hPa | 3.56 mm | - | - | - |
| 1787966442 | 17.78° C | 100% | 1015.3 hPa | 2.54 mm | - | - | - |
| 1787965721 | 18.33° C | 100% | 1015.1 hPa | 1.78 mm | - | - | - |
| 1787965000 | 18.33° C | 100% | 1015.1 hPa | 1.27 mm | - | - | - |
| 1787964279 | 18.89° C | 100% | 1014.9 hPa | 0.25 mm | - | - | - |
| 1787963559 | 20° C | 100% | 1014.4 hPa | 0 mm | - | - | - |
| 1787962838 | 20° C | 100% | 1013.6 hPa | 0 mm | - | - | - |
* Rain latest hour (hover to see other rain measurements)
** Current wind speed in m/s (hover to see current wind gust speed)